White Mountain, AK

8:23 PM AKDT on April 25, 2018 (GMT -0800)
White Mountain

Weather History for PAWM - April, 2013

Change the Weather History Date:

Thursday, April 25, 2013

  Actual Average (PAOM) Record (PAOM)
Temperature  
Mean Temperature 26 °F -  
Max Temperature 33 °F 30 °F 60 °F (1940)
Min Temperature 19 °F 16 °F -17 °F (1964)
Degree Days  
Heating Degree Days 39    
Moisture  
Dew Point 18 °F    
Average Humidity 69    
Maximum Humidity 82    
Minimum Humidity 48    
Precipitation  
Precipitation 0.00 in - - ()
Sea Level Pressure  
Sea Level Pressure 30.36 in    
Wind  
Wind Speed 9 mph (NNW)    
Max Wind Speed 14 mph    
Max Gust Speed 17 mph    
Visibility 9 miles    
Events      
Averages and records for this station are not official NWS values.
T = Trace of Precipitation, MM = Missing Value Source: NWS Daily Summary

Daily Weather History Graph

Daily Weather History Graph

Search for Another Location

Airport or City:

Astronomy

Apr. 25, 2013 Rise Set
Actual Time 6:41 AM AKDT 11:03 PM AKDT
Civil Twilight 5:36 AM AKDT 12:10 AM AKDT
Nautical Twilight 3:24 AM AKDT 2:18 AM AKDT
Astronomical Twilight Sun does not set Sun does not set
Moon 11:51 PM AKDT (4/25) 6:32 AM AKDT (4/25)
Length of Visible Light 18h 34m
Length of Day
16h 22m
Full, 100% of the Moon is Illuminated
Apr 25
Full
May 2
Last Quarter
May 9
New
May 17
First Quarter
May 24
Full

Hourly Weather History & Observations

Time (AKDT) Temp. Windchill Dew Point Humidity Pressure Visibility Wind Dir Wind Speed Gust Speed Precip Events Conditions
12:58 AM 28.9 °F 21.1 °F 21.0 °F 72% 30.44 in 10.0 mi NNW 8.1 mph - N/A   Clear
1:58 AM 27.0 °F 17.3 °F 21.0 °F 78% 30.43 in 10.0 mi NNW 10.4 mph - N/A   Clear
2:58 AM 26.1 °F 15.0 °F 21.0 °F 81% 30.43 in 10.0 mi North 12.7 mph - N/A   Clear
3:58 AM 24.1 °F 12.5 °F 19.0 °F 81% 30.43 in 10.0 mi NNW 12.7 mph - N/A   Clear
4:58 AM 21.9 °F 13.4 °F 17.1 °F 82% 30.45 in 10.0 mi NNE 6.9 mph - N/A   Clear
5:58 AM 21.0 °F 13.4 °F 16.0 °F 81% 30.44 in 9.0 mi North 5.8 mph - N/A   Clear
6:58 AM 19.9 °F 11.1 °F 15.1 °F 81% 30.45 in 8.0 mi NNE 6.9 mph - N/A   Clear
7:58 AM 19.0 °F 5.6 °F 14.0 °F 81% 30.43 in 8.0 mi NNW 13.8 mph - N/A   Clear
8:58 AM 21.0 °F 13.4 °F 15.1 °F 78% 30.43 in 7.0 mi NNW 5.8 mph - N/A   Clear
9:58 AM 23.0 °F 13.1 °F 15.1 °F 72% 30.42 in 8.0 mi NNW 9.2 mph - N/A   Clear
10:58 AM 25.0 °F 15.5 °F 16.0 °F 69% 30.40 in 8.0 mi NNW 9.2 mph - N/A   Clear
11:58 AM 27.0 °F 18.7 °F 16.0 °F 63% 30.40 in 7.0 mi WNW 8.1 mph - N/A   Clear
12:58 PM 28.0 °F 17.0 °F 17.1 °F 63% 30.38 in 9.0 mi NW 13.8 mph - N/A   Clear
1:58 PM 30.0 °F 19.5 °F 17.1 °F 59% 30.37 in 9.0 mi NW 13.8 mph - N/A   Clear
2:58 PM 30.9 °F 22.2 °F 17.1 °F 57% 30.35 in 9.0 mi NNW 10.4 mph 17.3 mph N/A   Clear
3:58 PM 33.1 °F 26.1 °F 15.1 °F 48% 30.34 in 8.0 mi WNW 8.1 mph - N/A   Clear
4:58 PM 33.1 °F 24.4 °F 16.0 °F 50% 30.33 in 8.0 mi NW 11.5 mph - N/A   Clear
5:58 PM 33.1 °F 26.9 °F 16.0 °F 50% 30.31 in 9.0 mi NNW 6.9 mph - N/A   Clear
6:58 PM 32.0 °F 24.2 °F 19.0 °F 59% 30.28 in 9.0 mi NW 9.2 mph - N/A   Clear
7:58 PM 32.0 °F 27.5 °F 19.9 °F 61% 30.26 in 9.0 mi NW 4.6 mph - N/A   Clear
8:58 PM 30.0 °F 22.4 °F 19.9 °F 66% 30.23 in 9.0 mi NW 8.1 mph - N/A   Clear
9:58 PM 30.0 °F 25.2 °F 19.9 °F 66% 30.23 in 10.0 mi NNW 4.6 mph - N/A   Overcast
10:58 PM 28.0 °F 24.2 °F 21.0 °F 75% 30.21 in 9.0 mi ENE 3.5 mph - N/A   Overcast
11:58 PM 27.0 °F - 21.0 °F 78% 30.18 in 10.0 mi Calm Calm - N/A   Overcast